OE7AOT Weather Reports


time (UTC)temp
F
wind
direction
speed
knots
gust
knots
rain 1hr
in
rain 24hr
in
rain mn
in
humidity
%
barometer
mb
20260510020658 45 145 7.0 0.0 0.00 0.24 0.00 84 912.0
20260510013658 45 101 11.3 0.0 0.00 0.24 0.00 84 912.1
20260510010658 46 98 9.6 0.0 0.00 0.24 0.00 83 912.3
20260510003658 46 111 10.4 0.0 0.00 0.24 0.00 82 912.5
20260510000658 47 142 12.2 0.0 0.00 0.24 0.00 82 912.7
20260509233658 47 110 9.6 0.0 0.00 0.24 0.00 82 913.0
20260509230658 48 120 10.4 0.0 0.00 0.24 0.00 80 913.1
20260509223658 48 128 7.8 0.0 0.00 0.24 0.00 80 913.3
20260509220658 49 81 6.1 0.0 0.00 0.24 0.00 77 913.5
20260509213658 50 156 7.0 0.0 0.00 0.24 0.00 75 913.5
20260509210658 51 162 7.8 0.0 0.00 0.24 0.00 70 913.4
20260509203658 52 136 4.3 0.0 0.00 0.24 0.00 67 913.7
20260509200658 53 114 3.5 0.0 0.00 0.24 0.00 65 913.9
20260509193658 54 162 4.3 0.0 0.00 0.24 0.00 64 913.8
20260509190658 56 183 7.0 0.0 0.00 0.24 0.00 62 913.6
20260509183658 58 139 6.1 0.0 0.00 0.24 0.00 58 913.5
20260509180658 60 148 11.3 0.0 0.00 0.24 0.00 54 913.3
20260509173658 64 125 13.9 0.0 0.00 0.24 0.00 49 913.1
20260509170658 66 145 13.9 0.0 0.00 0.24 0.00 48 913.3
20260509163658 67 146 13.0 0.0 0.00 0.24 0.00 45 913.5
20260509160658 65 142 18.2 0.0 0.00 0.24 0.00 48 913.7
20260509153658 63 141 15.6 0.0 0.00 0.24 0.00 53 913.9
20260509150658 68 152 13.0 0.0 0.00 0.24 0.00 43 913.6
20260509143658 68 286 7.0 0.0 0.00 0.24 0.00 42 913.3
20260509140658 67 280 9.6 0.0 0.00 0.24 0.00 47 913.2
20260509133658 68 314 7.0 0.0 0.00 0.24 0.00 46 913.1
20260509130658 69 269 5.2 0.0 0.00 0.24 0.00 40 913.0
20260509123658 71 273 7.8 0.0 0.00 0.24 0.00 39 912.8
20260509120704 72 261 6.1 0.0 0.00 0.24 0.00 37 913.0
20260509120658 72 261 6.1 0.0 0.00 0.24 0.00 37 913.0
20260509113658 72 279 8.7 0.0 0.00 0.24 0.00 38 913.3
20260509110658 71 282 7.0 0.0 0.00 0.24 0.00 40 913.6
20260509103658 69 307 6.1 0.0 0.00 0.24 0.00 43 914.0
20260509100658 67 269 7.0 0.0 0.00 0.24 0.00 48 914.4
20260509093658 65 251 7.8 0.0 0.00 0.24 0.00 52 914.7
20260509090658 63 288 10.4 0.0 0.00 0.24 0.00 53 914.9
20260509083658 61 289 7.8 0.0 0.00 0.24 0.00 59 915.1
20260509080658 58 289 7.8 0.0 0.00 0.24 0.00 64 915.3
20260509073658 57 295 7.0 0.0 0.00 0.24 0.00 64 915.3
20260509070658 54 286 4.3 0.0 0.00 0.24 0.00 69 915.3
20260509063658 51 0 0.0 0.0 0.00 0.24 0.00 75 915.0
20260509060658 49 0 0.0 0.0 0.00 0.24 0.00 78 915.0
20260509053658 48 0 0.0 0.0 0.00 0.24 0.00 79 914.9
20260509050658 47 0 0.0 0.0 0.00 0.24 0.00 80 914.5
20260509043658 46 118 5.2 0.0 0.00 0.24 0.00 81 914.3
20260509040658 46 0 0.0 0.0 0.00 0.24 0.00 80 914.1
20260509033658 46 0 0.0 0.0 0.00 0.24 0.00 79 914.0
20260509030658 46 0 0.0 0.0 0.00 0.24 0.00 79 913.9
20260509023658 46 87 0.9 0.0 0.00 0.24 0.00 79 913.7